• în Republica Moldova
  • Lista ţărilor
  • Pe 7 zile
  • Temperatura apei
  • Hartă satelitară
  • Meteo pe hartă
  • Widget-uri
  • user-avatar
    Intrare

    Meteo pe oră la Ondjiwa

    Astăzi, 23 Noiembrie, Joi

    Timp Temperatura Precipitaţii Vânt Presiune Umiditate
    00:00 +29°C° 0 mm 2 m/s 666 mmHg 27%
    01:00 +28°C° 0 mm 2 m/s 666 mmHg 29%
    02:00 +27°C° 0 mm 2 m/s 666 mmHg 31%
    03:00 +27°C° 0 mm 2 m/s 666 mmHg 32%
    04:00 +26°C° 0 mm 2 m/s 666 mmHg 33%
    05:00 +27°C° 0 mm 2 m/s 666 mmHg 33%
    06:00 +27°C° 0 mm 2 m/s 667 mmHg 33%
    07:00 +28°C° 0 mm 2 m/s 667 mmHg 33%
    08:00 +30°C° 0 mm 2 m/s 667 mmHg 30%
    09:00 +34°C° 0 mm 2 m/s 668 mmHg 27%
    10:00 +36°C° 0 mm 2 m/s 668 mmHg 24%
    11:00 +36°C° 0 mm 2 m/s 667 mmHg 24%
    12:00 +36°C° 0 mm 2 m/s 667 mmHg 23%
    13:00 +36°C° 0 mm 2 m/s 666 mmHg 23%
    14:00 +36°C° 0 mm 2 m/s 666 mmHg 23%
    15:00 +36°C° 0 mm 2 m/s 665 mmHg 24%
    16:00 +36°C° 0 mm 2 m/s 665 mmHg 24%
    17:00 +35°C° 0,1 mm 2 m/s 665 mmHg 28%
    18:00 +32°C° 0,1 mm 2 m/s 665 mmHg 31%
    19:00 +31°C° 0,1 mm 2 m/s 665 mmHg 34%
    20:00 +29°C° 0,4 mm 2 m/s 665 mmHg 39%
    21:00 +28°C° 0,4 mm 3 m/s 666 mmHg 43%
    22:00 +27°C° 0,4 mm 3 m/s 666 mmHg 48%
    23:00 +27°C° 0,3 mm 3 m/s 666 mmHg 50%

    Mâine, 24 Noiembrie, Vineri

    Timp Temperatura Precipitaţii Vânt Presiune Umiditate
    00:00 +26°C° 0,3 mm 2 m/s 666 mmHg 52%
    01:00 +26°C° 0,3 mm 2 m/s 666 mmHg 54%
    02:00 +26°C° 0,4 mm 2 m/s 666 mmHg 53%
    03:00 +25°C° 0,4 mm 2 m/s 666 mmHg 52%
    04:00 +24°C° 0,4 mm 2 m/s 666 mmHg 52%
    05:00 +25°C° 0,3 mm 2 m/s 666 mmHg 50%
    06:00 +26°C° 0,3 mm 2 m/s 667 mmHg 48%
    07:00 +26°C° 0,3 mm 1 m/s 667 mmHg 45%
    08:00 +29°C° 0,2 mm 1 m/s 668 mmHg 40%
    09:00 +31°C° 0,2 mm 1 m/s 668 mmHg 34%
    10:00 +34°C° 0,2 mm 1 m/s 669 mmHg 28%
    11:00 +35°C° 0 mm 1 m/s 668 mmHg 26%
    12:00 +36°C° 0 mm 1 m/s 668 mmHg 24%
    13:00 +37°C° 0 mm 1 m/s 668 mmHg 22%
    14:00 +37°C° 0 mm 1 m/s 667 mmHg 23%
    15:00 +36°C° 0 mm 1 m/s 666 mmHg 24%
    16:00 +35°C° 0 mm 1 m/s 665 mmHg 24%
    17:00 +35°C° 0 mm 2 m/s 665 mmHg 26%
    18:00 +34°C° 0 mm 2 m/s 665 mmHg 29%
    19:00 +32°C° 0 mm 2 m/s 666 mmHg 31%
    20:00 +31°C° 0 mm 2 m/s 666 mmHg 33%
    21:00 +30°C° 0 mm 2 m/s 667 mmHg 35%
    22:00 +30°C° 0 mm 3 m/s 667 mmHg 37%
    23:00 +29°C° 0 mm 3 m/s 667 mmHg 38%

    Poimâine, 25 Noiembrie, Sâmbătă

    Timp Temperatura Precipitaţii Vânt Presiune Umiditate
    00:00 +28°C° 0 mm 3 m/s 666 mmHg 39%
    01:00 +27°C° 0 mm 3 m/s 666 mmHg 40%
    02:00 +27°C° 0 mm 3 m/s 666 mmHg 39%
    03:00 +27°C° 0 mm 3 m/s 666 mmHg 38%
    04:00 +26°C° 0 mm 3 m/s 666 mmHg 37%
    05:00 +27°C° 0 mm 3 m/s 666 mmHg 34%
    06:00 +28°C° 0 mm 3 m/s 667 mmHg 31%
    07:00 +28°C° 0 mm 3 m/s 667 mmHg 28%
    08:00 +31°C° 0 mm 3 m/s 668 mmHg 25%
    09:00 +34°C° 0 mm 3 m/s 668 mmHg 22%
    10:00 +36°C° 0 mm 3 m/s 668 mmHg 19%
    11:00 +37°C° 0 mm 3 m/s 667 mmHg 18%
    12:00 +37°C° 0 mm 3 m/s 667 mmHg 18%
    13:00 +38°C° 0 mm 3 m/s 666 mmHg 17%
    14:00 +38°C° 0 mm 3 m/s 665 mmHg 16%
    15:00 +39°C° 0 mm 3 m/s 665 mmHg 15%
    16:00 +39°C° 0 mm 3 m/s 664 mmHg 14%
    17:00 +37°C° 0 mm 3 m/s 664 mmHg 15%
    18:00 +36°C° 0 mm 2 m/s 664 mmHg 17%
    19:00 +34°C° 0 mm 2 m/s 664 mmHg 18%
    20:00 +32°C° 0 mm 2 m/s 665 mmHg 18%
    21:00 +33°C° 0 mm 3 m/s 666 mmHg 18%
    22:00 +32°C° 0 mm 4 m/s 666 mmHg 19%
    23:00 +30°C° 0 mm 4 m/s 666 mmHg 20%

    26 Noiembrie, Duminică

    Timp Temperatura Precipitaţii Vânt Presiune Umiditate
    00:00 +28°C° 0 mm 3 m/s 665 mmHg 21%
    01:00 +27°C° 0 mm 3 m/s 665 mmHg 22%
    02:00 +26°C° 0 mm 3 m/s 665 mmHg 25%
    03:00 +25°C° 0 mm 3 m/s 665 mmHg 28%
    04:00 +24°C° 0 mm 3 m/s 665 mmHg 32%
    05:00 +25°C° 0 mm 3 m/s 666 mmHg 34%
    06:00 +25°C° 0 mm 3 m/s 666 mmHg 35%
    07:00 +26°C° 0 mm 3 m/s 667 mmHg 37%
    08:00 +28°C° 0 mm 3 m/s 667 mmHg 29%
    09:00 +31°C° 0 mm 3 m/s 668 mmHg 21%
    10:00 +34°C° 0 mm 3 m/s 668 mmHg 13%
    11:00 +36°C° 0 mm 3 m/s 668 mmHg 12%
    12:00 +37°C° 0 mm 2 m/s 667 mmHg 10%
    13:00 +38°C° 0 mm 2 m/s 666 mmHg 9%
    14:00 +38°C° 0 mm 2 m/s 666 mmHg 9%
    15:00 +38°C° 0 mm 3 m/s 665 mmHg 9%
    16:00 +38°C° 0 mm 3 m/s 665 mmHg 9%
    17:00 +37°C° 0 mm 3 m/s 665 mmHg 10%
    18:00 +35°C° 0 mm 3 m/s 665 mmHg 11%
    19:00 +32°C° 0 mm 2 m/s 665 mmHg 12%
    20:00 +31°C° 0 mm 3 m/s 666 mmHg 14%
    21:00 +30°C° 0 mm 4 m/s 666 mmHg 16%
    22:00 +29°C° 0 mm 4 m/s 667 mmHg 17%
    23:00 +28°C° 0 mm 4 m/s 666 mmHg 22%

    27 Noiembrie, Luni

    Timp Temperatura Precipitaţii Vânt Presiune Umiditate
    00:00 +27°C° 0 mm 4 m/s 666 mmHg 27%
    01:00 +26°C° 0 mm 4 m/s 666 mmHg 31%
    02:00 +25°C° 0 mm 4 m/s 666 mmHg 36%
    03:00 +23°C° 0 mm 4 m/s 666 mmHg 40%
    04:00 +22°C° 0 mm 4 m/s 666 mmHg 45%
    05:00 +22°C° 0 mm 4 m/s 666 mmHg 45%
    06:00 +22°C° 0 mm 4 m/s 667 mmHg 46%
    07:00 +23°C° 0 mm 5 m/s 668 mmHg 46%
    08:00 +26°C° 0 mm 5 m/s 668 mmHg 38%
    09:00 +29°C° 0 mm 5 m/s 668 mmHg 30%
    10:00 +32°C° 0 mm 5 m/s 669 mmHg 21%
    11:00 +34°C° 0 mm 5 m/s 668 mmHg 18%
    12:00 +36°C° 0 mm 5 m/s 667 mmHg 15%
    13:00 +37°C° 0 mm 4 m/s 667 mmHg 11%
    14:00 +38°C° 0 mm 4 m/s 666 mmHg 10%
    15:00 +38°C° 0 mm 3 m/s 666 mmHg 10%
    16:00 +38°C° 0 mm 3 m/s 665 mmHg 9%
    17:00 +36°C° 0 mm 2 m/s 665 mmHg 10%
    18:00 +34°C° 0 mm 2 m/s 665 mmHg 12%
    19:00 +31°C° 0 mm 1 m/s 665 mmHg 13%
    20:00 +30°C° 0 mm 2 m/s 666 mmHg 15%
    21:00 +29°C° 0 mm 4 m/s 666 mmHg 18%
    22:00 +29°C° 0 mm 5 m/s 666 mmHg 20%
    23:00 +28°C° 0 mm 5 m/s 666 mmHg 25%

    28 Noiembrie, Marţi

    Timp Temperatura Precipitaţii Vânt Presiune Umiditate
    00:00 +27°C° 0 mm 4 m/s 666 mmHg 30%
    01:00 +26°C° 0 mm 4 m/s 666 mmHg 36%
    02:00 +25°C° 0 mm 4 m/s 666 mmHg 39%
    03:00 +24°C° 0 mm 3 m/s 666 mmHg 42%
    04:00 +23°C° 0 mm 2 m/s 666 mmHg 45%
    05:00 +24°C° 0 mm 2 m/s 666 mmHg 42%
    06:00 +24°C° 0 mm 3 m/s 667 mmHg 40%
    07:00 +25°C° 0 mm 3 m/s 668 mmHg 37%
    08:00 +28°C° 0 mm 3 m/s 668 mmHg 30%
    09:00 +30°C° 0 mm 4 m/s 668 mmHg 23%
    10:00 +33°C° 0 mm 4 m/s 668 mmHg 15%
    11:00 +35°C° 0 mm 4 m/s 668 mmHg 13%
    12:00 +37°C° 0 mm 4 m/s 667 mmHg 11%
    13:00 +38°C° 0 mm 4 m/s 667 mmHg 9%
    14:00 +38°C° 0 mm 4 m/s 666 mmHg 9%
    15:00 +39°C° 0 mm 3 m/s 666 mmHg 9%
    16:00 +39°C° 0 mm 3 m/s 665 mmHg 9%
    17:00 +37°C° 0 mm 3 m/s 665 mmHg 10%
    18:00 +35°C° 0 mm 2 m/s 665 mmHg 12%
    19:00 +32°C° 0 mm 1 m/s 665 mmHg 13%
    20:00 +31°C° 0 mm 2 m/s 665 mmHg 14%
    21:00 +30°C° 0 mm 2 m/s 666 mmHg 15%
    22:00 +30°C° 0 mm 3 m/s 666 mmHg 15%
    23:00 +29°C° 0 mm 3 m/s 666 mmHg 20%
    Arată mai mult